Time,TemperatureF,DewpointF,PressureIn,WindDirection,WindDirectionDegrees,WindSpeedMPH,WindSpeedGustMPH,Humidity,HourlyPrecipIn,Conditions,Clouds,dailyrainin,SoftwareType,DateUTC
2013-02-11 00:00:00,55.4,54.3,30.18,ENE,65,0.0,0.0,96,0.10,,,0.01,Wunderground v.1.15,2013-02-11 05:00:00,
2013-02-11 00:05:00,55.4,54.3,30.18,ENE,65,0.0,1.0,96,0.11,,,0.02,Wunderground v.1.15,2013-02-11 05:05:00,
2013-02-11 00:10:00,55.4,54.3,30.18,ENE,65,0.0,0.0,96,0.11,,,0.02,Wunderground v.1.15,2013-02-11 05:10:00,
2013-02-11 00:15:00,55.4,54.3,30.17,ENE,65,0.0,0.0,96,0.07,,,0.03,Wunderground v.1.15,2013-02-11 05:15:00,
2013-02-11 00:20:00,55.4,54.3,30.17,ENE,65,0.0,0.0,96,0.11,,,0.04,Wunderground v.1.15,2013-02-11 05:20:00,
2013-02-11 00:25:00,55.4,54.3,30.17,ENE,65,0.0,0.0,96,0.12,,,0.05,Wunderground v.1.15,2013-02-11 05:25:00,
2013-02-11 00:30:00,55.4,54.6,30.17,ENE,65,0.0,0.0,97,0.09,,,0.05,Wunderground v.1.15,2013-02-11 05:30:00,
2013-02-11 00:35:00,55.4,54.6,30.16,ENE,65,0.0,0.0,97,0.07,,,0.06,Wunderground v.1.15,2013-02-11 05:35:00,
2013-02-11 00:40:00,55.4,54.6,30.16,ENE,65,0.0,0.0,97,0.07,,,0.06,Wunderground v.1.15,2013-02-11 05:40:00,
2013-02-11 00:45:00,55.3,54.5,30.16,ENE,65,0.0,0.0,97,0.07,,,0.07,Wunderground v.1.15,2013-02-11 05:45:00,
2013-02-11 00:50:00,55.3,54.5,30.16,ENE,65,0.0,1.0,97,0.06,,,0.07,Wunderground v.1.15,2013-02-11 05:50:00,
2013-02-11 01:00:00,55.4,54.6,30.15,ENE,65,0.0,1.0,97,0.08,,,0.09,Wunderground v.1.15,2013-02-11 06:00:00,
2013-02-11 01:05:00,55.3,54.5,30.14,ENE,69,0.0,1.0,97,0.08,,,0.09,Wunderground v.1.15,2013-02-11 06:05:00,
2013-02-11 01:15:00,55.3,54.5,30.14,ENE,75,0.0,0.0,97,0.04,,,0.09,Wunderground v.1.15,2013-02-11 06:15:00,
2013-02-11 01:20:00,55.3,54.5,30.13,East,79,0.0,0.0,97,0.00,,,0.09,Wunderground v.1.15,2013-02-11 06:20:00,
2013-02-11 01:25:00,55.3,54.5,30.13,SSW,202,0.0,5.0,97,0.00,,,0.09,Wunderground v.1.15,2013-02-11 06:25:00,
2013-02-11 01:30:00,55.3,54.5,30.13,SE,139,1.0,1.0,97,0.00,,,0.09,Wunderground v.1.15,2013-02-11 06:30:00,
2013-02-11 01:35:00,55.3,54.5,30.12,SE,129,2.0,2.0,97,0.00,,,0.09,Wunderground v.1.15,2013-02-11 06:35:00,
2013-02-11 01:40:00,55.3,54.5,30.12,SE,139,1.0,1.0,97,0.00,,,0.09,Wunderground v.1.15,2013-02-11 06:40:00,
2013-02-11 01:45:00,55.3,54.5,30.11,SE,138,1.0,1.0,97,0.00,,,0.09,Wunderground v.1.15,2013-02-11 06:45:00,
2013-02-11 01:50:00,55.3,54.5,30.11,ESE,118,2.0,2.0,97,0.00,,,0.09,Wunderground v.1.15,2013-02-11 06:50:00,
2013-02-11 01:55:00,55.3,54.5,30.12,East,101,2.0,2.0,97,0.00,,,0.09,Wunderground v.1.15,2013-02-11 06:55:00,
2013-02-11 02:05:00,55.4,54.6,30.11,SE,138,1.0,2.0,97,0.00,,,0.10,Wunderground v.1.15,2013-02-11 07:05:00,
2013-02-11 02:15:00,55.4,54.6,30.12,South,182,1.0,2.0,97,0.00,,,0.10,Wunderground v.1.15,2013-02-11 07:15:00,
2013-02-11 02:20:00,55.5,54.7,30.12,South,187,1.0,5.0,97,0.00,,,0.10,Wunderground v.1.15,2013-02-11 07:20:00,
2013-02-11 02:25:00,55.6,54.8,30.12,SE,140,2.0,5.0,97,0.00,,,0.10,Wunderground v.1.15,2013-02-11 07:25:00,
2013-02-11 02:30:00,55.7,54.9,30.11,SE,129,2.0,2.0,97,0.00,,,0.11,Wunderground v.1.15,2013-02-11 07:30:00,
2013-02-11 02:35:00,55.7,54.9,30.10,SE,141,2.0,2.0,97,0.07,,,0.12,Wunderground v.1.15,2013-02-11 07:35:00,
2013-02-11 02:40:00,55.8,55.0,30.09,SE,135,2.0,6.0,97,0.07,,,0.12,Wunderground v.1.15,2013-02-11 07:40:00,
2013-02-11 02:50:00,55.9,55.1,30.08,SSW,203,3.0,4.0,97,0.04,,,0.13,Wunderground v.1.15,2013-02-11 07:50:00,
2013-02-11 02:55:00,55.9,55.1,30.08,SSE,148,3.0,4.0,97,0.04,,,0.13,Wunderground v.1.15,2013-02-11 07:55:00,
2013-02-11 03:00:00,56.0,55.2,30.08,SE,131,3.0,3.0,97,0.04,,,0.13,Wunderground v.1.15,2013-02-11 08:00:00,
2013-02-11 03:05:00,56.0,55.2,30.08,South,174,2.0,7.0,97,0.00,,,0.13,Wunderground v.1.15,2013-02-11 08:05:00,
2013-02-11 03:15:00,56.1,55.3,30.07,SE,139,3.0,7.0,97,0.00,,,0.14,Wunderground v.1.15,2013-02-11 08:15:00,
2013-02-11 03:20:00,56.1,55.3,30.07,SE,146,2.0,5.0,97,0.00,,,0.14,Wunderground v.1.15,2013-02-11 08:20:00,
2013-02-11 03:25:00,56.2,55.4,30.07,SE,140,2.0,5.0,97,0.00,,,0.14,Wunderground v.1.15,2013-02-11 08:25:00,
2013-02-11 03:30:00,56.3,55.5,30.07,SE,140,2.0,4.0,97,0.00,,,0.14,Wunderground v.1.15,2013-02-11 08:30:00,
2013-02-11 03:35:00,56.3,55.5,30.07,SSE,161,2.0,4.0,97,0.00,,,0.14,Wunderground v.1.15,2013-02-11 08:35:00,
2013-02-11 03:45:00,56.4,55.6,30.07,South,172,2.0,4.0,97,0.00,,,0.14,Wunderground v.1.15,2013-02-11 08:45:00,
2013-02-11 03:50:00,56.5,55.7,30.08,SSE,167,3.0,3.0,97,0.00,,,0.14,Wunderground v.1.15,2013-02-11 08:50:00,
2013-02-11 03:55:00,56.6,55.8,30.08,SSE,152,3.0,3.0,97,0.00,,,0.14,Wunderground v.1.15,2013-02-11 08:55:00,
2013-02-11 04:00:00,56.6,55.8,30.08,South,191,2.0,2.0,97,0.00,,,0.15,Wunderground v.1.15,2013-02-11 09:00:00,
2013-02-11 04:05:00,56.6,55.8,30.08,East,96,2.0,3.0,97,0.00,,,0.15,Wunderground v.1.15,2013-02-11 09:05:00,
2013-02-11 04:15:00,56.6,55.8,30.07,South,173,2.0,4.0,97,0.05,,,0.16,Wunderground v.1.15,2013-02-11 09:15:00,
2013-02-11 04:20:00,56.7,55.9,30.07,SSW,202,2.0,3.0,97,0.05,,,0.16,Wunderground v.1.15,2013-02-11 09:20:00,
2013-02-11 04:25:00,56.6,55.8,30.07,South,182,2.0,3.0,97,0.04,,,0.16,Wunderground v.1.15,2013-02-11 09:25:00,
2013-02-11 04:30:00,56.7,55.9,30.08,South,190,1.0,1.0,97,0.00,,,0.16,Wunderground v.1.15,2013-02-11 09:30:00,
2013-02-11 04:35:00,56.7,55.9,30.09,SSW,193,2.0,2.0,97,0.00,,,0.16,Wunderground v.1.15,2013-02-11 09:35:00,
2013-02-11 04:40:00,56.8,56.0,30.08,South,175,2.0,2.0,97,0.00,,,0.17,Wunderground v.1.15,2013-02-11 09:40:00,
2013-02-11 04:50:00,56.9,56.1,30.08,SW,228,3.0,3.0,97,0.06,,,0.18,Wunderground v.1.15,2013-02-11 09:50:00,
2013-02-11 04:55:00,56.9,56.1,30.08,SE,146,3.0,3.0,97,0.09,,,0.19,Wunderground v.1.15,2013-02-11 09:55:00,
2013-02-11 05:00:00,56.9,56.1,30.08,South,187,3.0,5.0,97,0.09,,,0.19,Wunderground v.1.15,2013-02-11 10:00:00,
2013-02-11 05:05:00,56.9,56.1,30.08,South,191,3.0,5.0,97,0.12,,,0.20,Wunderground v.1.15,2013-02-11 10:05:00,
2013-02-11 05:15:00,57.0,56.2,30.08,South,187,4.0,4.0,97,0.10,,,0.22,Wunderground v.1.15,2013-02-11 10:15:00,
2013-02-11 05:20:00,57.1,56.3,30.09,SW,236,2.0,2.0,97,0.11,,,0.23,Wunderground v.1.15,2013-02-11 10:20:00,
2013-02-11 05:25:00,57.1,56.3,30.09,South,185,3.0,3.0,97,0.13,,,0.24,Wunderground v.1.15,2013-02-11 10:25:00,
2013-02-11 05:30:00,57.2,56.4,30.09,SSW,200,4.0,4.0,97,0.09,,,0.25,Wunderground v.1.15,2013-02-11 10:30:00,
2013-02-11 05:35:00,57.2,56.4,30.09,SW,224,3.0,4.0,97,0.09,,,0.25,Wunderground v.1.15,2013-02-11 10:35:00,
2013-02-11 05:40:00,57.2,56.4,30.09,SW,218,3.0,9.0,97,0.07,,,0.26,Wunderground v.1.15,2013-02-11 10:40:00,
2013-02-11 05:45:00,57.3,56.5,30.09,SW,221,2.0,9.0,97,0.09,,,0.27,Wunderground v.1.15,2013-02-11 10:45:00,
2013-02-11 05:50:00,57.3,56.5,30.09,South,174,3.0,6.0,97,0.15,,,0.28,Wunderground v.1.15,2013-02-11 10:50:00,
2013-02-11 06:00:00,57.3,56.5,30.08,South,173,4.0,7.0,97,0.09,,,0.30,Wunderground v.1.15,2013-02-11 11:00:00,
2013-02-11 06:05:00,57.4,56.6,30.08,South,172,3.0,7.0,97,0.09,,,0.30,Wunderground v.1.15,2013-02-11 11:05:00,
2013-02-11 06:15:00,57.4,56.6,30.08,South,173,3.0,7.0,97,0.06,,,0.31,Wunderground v.1.15,2013-02-11 11:15:00,
2013-02-11 06:20:00,57.4,56.6,30.08,South,181,4.0,7.0,97,0.05,,,0.31,Wunderground v.1.15,2013-02-11 11:20:00,
2013-02-11 06:25:00,57.5,56.7,30.08,South,180,4.0,7.0,97,0.00,,,0.31,Wunderground v.1.15,2013-02-11 11:25:00,
2013-02-11 06:35:00,57.5,56.7,30.08,SSE,162,3.0,9.0,97,0.00,,,0.31,Wunderground v.1.15,2013-02-11 11:35:00,
2013-02-11 06:40:00,57.5,56.7,30.08,South,188,4.0,4.0,97,0.00,,,0.32,Wunderground v.1.15,2013-02-11 11:40:00,
2013-02-11 06:45:00,57.6,56.8,30.07,South,174,4.0,6.0,97,0.00,,,0.32,Wunderground v.1.15,2013-02-11 11:45:00,
2013-02-11 06:50:00,57.6,56.8,30.07,South,171,4.0,4.0,97,0.06,,,0.33,Wunderground v.1.15,2013-02-11 11:50:00,
2013-02-11 06:55:00,57.6,56.8,30.08,South,171,3.0,5.0,97,0.06,,,0.33,Wunderground v.1.15,2013-02-11 11:55:00,
2013-02-11 07:05:00,57.7,57.1,30.07,SSE,166,3.0,8.0,98,0.00,,,0.33,Wunderground v.1.15,2013-02-11 12:05:00,
2013-02-11 07:15:00,57.8,57.2,30.07,South,180,5.0,7.0,98,0.00,,,0.33,Wunderground v.1.15,2013-02-11 12:15:00,
2013-02-11 07:20:00,57.8,57.2,30.07,SSE,154,3.0,4.0,98,0.00,,,0.34,Wunderground v.1.15,2013-02-11 12:20:00,
2013-02-11 07:25:00,57.8,57.2,30.07,South,178,3.0,4.0,98,0.00,,,0.34,Wunderground v.1.15,2013-02-11 12:25:00,
2013-02-11 07:30:00,57.8,57.2,30.06,South,185,4.0,4.0,98,0.00,,,0.34,Wunderground v.1.15,2013-02-11 12:30:00,
2013-02-11 07:35:00,57.8,57.2,30.07,SSW,203,4.0,5.0,98,0.04,,,0.35,Wunderground v.1.15,2013-02-11 12:35:00,
2013-02-11 07:40:00,57.9,57.3,30.06,South,175,4.0,4.0,98,0.04,,,0.35,Wunderground v.1.15,2013-02-11 12:40:00,
2013-02-11 07:45:00,57.9,57.3,30.07,South,179,4.0,5.0,98,0.06,,,0.36,Wunderground v.1.15,2013-02-11 12:45:00,
2013-02-11 07:50:00,58.0,57.4,30.07,SSW,195,3.0,6.0,98,0.08,,,0.37,Wunderground v.1.15,2013-02-11 12:50:00,
2013-02-11 07:55:00,58.1,57.5,30.08,South,185,4.0,10.0,98,0.12,,,0.38,Wunderground v.1.15,2013-02-11 12:55:00,
2013-02-11 08:00:00,58.1,57.5,30.08,WSW,249,4.0,9.0,98,0.09,,,0.38,Wunderground v.1.15,2013-02-11 13:00:00,
2013-02-11 08:05:00,58.2,57.6,30.08,South,179,5.0,12.0,98,0.05,,,0.38,Wunderground v.1.15,2013-02-11 13:05:00,
2013-02-11 08:15:00,58.2,57.6,30.09,South,183,3.0,12.0,98,0.00,,,0.39,Wunderground v.1.15,2013-02-11 13:15:00,
2013-02-11 08:20:00,58.2,57.6,30.10,South,173,4.0,7.0,98,0.00,,,0.39,Wunderground v.1.15,2013-02-11 13:20:00,
2013-02-11 08:25:00,58.3,57.7,30.10,South,186,4.0,7.0,98,0.06,,,0.40,Wunderground v.1.15,2013-02-11 13:25:00,
2013-02-11 08:30:00,58.3,57.7,30.10,SSE,166,3.0,3.0,98,0.06,,,0.40,Wunderground v.1.15,2013-02-11 13:30:00,
2013-02-11 08:35:00,58.3,57.7,30.09,SSW,197,3.0,3.0,98,0.05,,,0.40,Wunderground v.1.15,2013-02-11 13:35:00,
2013-02-11 08:45:00,58.3,57.7,30.09,South,174,2.0,2.0,98,0.00,,,0.41,Wunderground v.1.15,2013-02-11 13:45:00,
2013-02-11 08:50:00,58.3,57.7,30.08,South,183,3.0,4.0,98,0.00,,,0.41,Wunderground v.1.15,2013-02-11 13:50:00,
2013-02-11 08:55:00,58.4,57.8,30.08,South,175,3.0,4.0,98,0.00,,,0.41,Wunderground v.1.15,2013-02-11 13:55:00,
2013-02-11 09:00:00,58.4,57.8,30.07,South,172,3.0,4.0,98,0.00,,,0.41,Wunderground v.1.15,2013-02-11 14:00:00,
2013-02-11 09:05:00,58.4,57.8,30.08,WSW,245,3.0,4.0,98,0.00,,,0.41,Wunderground v.1.15,2013-02-11 14:05:00,
2013-02-11 09:15:00,58.5,57.9,30.07,South,170,3.0,3.0,98,0.00,,,0.41,Wunderground v.1.15,2013-02-11 14:15:00,
2013-02-11 09:20:00,58.5,57.9,30.08,South,173,3.0,4.0,98,0.00,,,0.41,Wunderground v.1.15,2013-02-11 14:20:00,
2013-02-11 09:25:00,58.6,58.0,30.08,SSE,157,3.0,4.0,98,0.00,,,0.41,Wunderground v.1.15,2013-02-11 14:25:00,
2013-02-11 09:30:00,58.6,58.0,30.08,South,179,2.0,5.0,98,0.00,,,0.41,Wunderground v.1.15,2013-02-11 14:30:00,
2013-02-11 09:35:00,58.6,58.0,30.07,SSW,200,3.0,5.0,98,0.00,,,0.41,Wunderground v.1.15,2013-02-11 14:35:00,
2013-02-11 09:40:00,58.6,58.0,30.07,South,191,3.0,3.0,98,0.00,,,0.42,Wunderground v.1.15,2013-02-11 14:40:00,
2013-02-11 09:45:00,58.6,58.0,30.07,South,182,3.0,4.0,98,0.00,,,0.42,Wunderground v.1.15,2013-02-11 14:45:00,
2013-02-11 09:55:00,58.7,58.1,30.06,SSW,201,3.0,9.0,98,0.00,,,0.42,Wunderground v.1.15,2013-02-11 14:55:00,
2013-02-11 10:00:00,58.8,58.2,30.04,SE,139,3.0,3.0,98,0.00,,,0.42,Wunderground v.1.15,2013-02-11 15:00:00,
2013-02-11 10:05:00,58.9,58.3,30.04,South,185,3.0,7.0,98,0.00,,,0.42,Wunderground v.1.15,2013-02-11 15:05:00,
2013-02-11 10:15:00,59.2,58.6,30.02,South,173,5.0,5.0,98,0.00,,,0.42,Wunderground v.1.15,2013-02-11 15:15:00,
2013-02-11 10:25:00,59.6,59.0,30.03,SSW,204,3.0,5.0,98,0.00,,,0.42,Wunderground v.1.15,2013-02-11 15:25:00,
2013-02-11 10:30:00,59.8,59.2,30.04,South,177,4.0,5.0,98,0.00,,,0.42,Wunderground v.1.15,2013-02-11 15:30:00,
2013-02-11 10:35:00,60.1,59.5,30.05,SSW,205,3.0,5.0,98,0.00,,,0.42,Wunderground v.1.15,2013-02-11 15:35:00,
2013-02-11 10:40:00,60.3,59.7,30.05,SSE,168,2.0,2.0,98,0.00,,,0.42,Wunderground v.1.15,2013-02-11 15:40:00,
2013-02-11 10:45:00,60.3,59.7,30.05,SSW,208,1.0,2.0,98,0.00,,,0.42,Wunderground v.1.15,2013-02-11 15:45:00,
2013-02-11 10:55:00,60.5,59.9,30.07,WSW,244,1.0,7.0,98,0.00,,,0.42,Wunderground v.1.15,2013-02-11 15:55:00,
2013-02-11 11:00:00,60.6,59.7,30.07,West,264,2.0,3.0,97,0.00,,,0.42,Wunderground v.1.15,2013-02-11 16:00:00,
2013-02-11 11:05:00,60.6,59.7,30.07,WSW,245,2.0,3.0,97,0.00,,,0.42,Wunderground v.1.15,2013-02-11 16:05:00,
2013-02-11 11:15:00,61.1,60.5,30.07,WSW,250,2.0,3.0,98,0.00,,,0.42,Wunderground v.1.15,2013-02-11 16:15:00,
2013-02-11 11:20:00,61.3,60.4,30.07,SSW,208,2.0,4.0,97,0.00,,,0.42,Wunderground v.1.15,2013-02-11 16:20:00,
2013-02-11 11:25:00,61.6,60.7,30.07,WSW,257,2.0,4.0,97,0.00,,,0.42,Wunderground v.1.15,2013-02-11 16:25:00,
2013-02-11 11:35:00,62.5,61.6,30.08,West,264,2.0,3.0,97,0.00,,,0.42,Wunderground v.1.15,2013-02-11 16:35:00,
2013-02-11 11:40:00,62.7,61.5,30.08,WSW,250,1.0,1.0,96,0.00,,,0.42,Wunderground v.1.15,2013-02-11 16:40:00,
2013-02-11 11:45:00,62.8,61.6,30.08,WSW,239,2.0,2.0,96,0.00,,,0.42,Wunderground v.1.15,2013-02-11 16:45:00,
2013-02-11 11:50:00,63.0,61.5,30.07,West,280,2.0,2.0,95,0.00,,,0.42,Wunderground v.1.15,2013-02-11 16:50:00,
2013-02-11 11:55:00,63.3,61.8,30.07,West,281,1.0,2.0,95,0.00,,,0.42,Wunderground v.1.15,2013-02-11 16:55:00,
2013-02-11 12:05:00,63.7,61.6,30.07,South,191,2.0,4.0,93,0.00,,,0.42,Wunderground v.1.15,2013-02-11 17:05:00,
2013-02-11 12:15:00,64.0,61.6,30.07,West,261,2.0,2.0,92,0.00,,,0.42,Wunderground v.1.15,2013-02-11 17:15:00,
2013-02-11 12:20:00,64.4,62.0,30.06,WSW,241,2.0,5.0,92,0.00,,,0.42,Wunderground v.1.15,2013-02-11 17:20:00,
2013-02-11 12:25:00,64.8,62.1,30.06,West,266,2.0,5.0,91,0.00,,,0.42,Wunderground v.1.15,2013-02-11 17:25:00,
2013-02-11 12:35:00,65.4,62.1,30.06,West,266,3.0,7.0,89,0.00,,,0.42,Wunderground v.1.15,2013-02-11 17:35:00,
2013-02-11 12:40:00,65.1,61.8,30.06,SSW,197,3.0,5.0,89,0.00,,,0.42,Wunderground v.1.15,2013-02-11 17:40:00,
2013-02-11 12:45:00,65.1,61.8,30.06,West,264,3.0,5.0,89,0.00,,,0.42,Wunderground v.1.15,2013-02-11 17:45:00,
2013-02-11 12:50:00,65.0,61.7,30.06,West,262,2.0,4.0,89,0.00,,,0.42,Wunderground v.1.15,2013-02-11 17:50:00,
2013-02-11 12:55:00,65.0,61.7,30.06,SW,215,2.0,4.0,89,0.00,,,0.42,Wunderground v.1.15,2013-02-11 17:55:00,
2013-02-11 13:00:00,65.0,61.7,30.06,WSW,245,1.0,1.0,89,0.00,,,0.42,Wunderground v.1.15,2013-02-11 18:00:00,
2013-02-11 13:05:00,65.0,61.7,30.05,West,259,1.0,2.0,89,0.00,,,0.42,Wunderground v.1.15,2013-02-11 18:05:00,
2013-02-11 13:15:00,65.1,61.8,30.05,WSW,252,1.0,4.0,89,0.00,,,0.42,Wunderground v.1.15,2013-02-11 18:15:00,
2013-02-11 13:20:00,65.2,61.9,30.05,South,181,1.0,1.0,89,0.00,,,0.42,Wunderground v.1.15,2013-02-11 18:20:00,
2013-02-11 13:25:00,65.4,62.1,30.04,SSW,208,1.0,1.0,89,0.00,,,0.42,Wunderground v.1.15,2013-02-11 18:25:00,
2013-02-11 13:30:00,65.7,62.4,30.04,West,262,1.0,1.0,89,0.00,,,0.42,Wunderground v.1.15,2013-02-11 18:30:00,
2013-02-11 13:35:00,65.7,62.4,30.03,SW,230,1.0,1.0,89,0.00,,,0.42,Wunderground v.1.15,2013-02-11 18:35:00,
2013-02-11 13:45:00,65.6,62.3,30.03,SW,214,1.0,1.0,89,0.00,,,0.42,Wunderground v.1.15,2013-02-11 18:45:00,
2013-02-11 13:50:00,65.7,62.0,30.02,SW,224,1.0,1.0,88,0.00,,,0.42,Wunderground v.1.15,2013-02-11 18:50:00,
2013-02-11 13:55:00,65.9,62.6,30.03,West,260,1.0,1.0,89,0.00,,,0.42,Wunderground v.1.15,2013-02-11 18:55:00,
2013-02-11 14:00:00,66.1,62.4,30.03,WNW,283,1.0,1.0,88,0.00,,,0.42,Wunderground v.1.15,2013-02-11 19:00:00,
2013-02-11 14:05:00,66.0,62.3,30.03,WSW,239,2.0,4.0,88,0.00,,,0.42,Wunderground v.1.15,2013-02-11 19:05:00,
2013-02-11 14:15:00,65.8,62.1,30.04,West,261,2.0,2.0,88,0.00,,,0.43,Wunderground v.1.15,2013-02-11 19:15:00,
2013-02-11 14:20:00,65.8,62.1,30.03,West,268,3.0,6.0,88,0.00,,,0.43,Wunderground v.1.15,2013-02-11 19:20:00,
2013-02-11 14:30:00,65.7,62.0,30.02,West,261,1.0,1.0,88,0.00,,,0.43,Wunderground v.1.15,2013-02-11 19:30:00,
2013-02-11 14:35:00,65.7,62.0,30.03,West,280,1.0,3.0,88,0.00,,,0.43,Wunderground v.1.15,2013-02-11 19:35:00,
2013-02-11 14:40:00,65.7,62.0,30.03,WSW,241,3.0,4.0,88,0.00,,,0.43,Wunderground v.1.15,2013-02-11 19:40:00,
2013-02-11 14:50:00,65.7,62.0,30.02,WSW,250,2.0,3.0,88,0.00,,,0.43,Wunderground v.1.15,2013-02-11 19:50:00,
2013-02-11 14:55:00,65.7,62.0,30.03,West,270,2.0,3.0,88,0.00,,,0.43,Wunderground v.1.15,2013-02-11 19:55:00,
2013-02-11 15:00:00,65.7,62.0,30.03,WSW,245,2.0,2.0,88,0.00,,,0.43,Wunderground v.1.15,2013-02-11 20:00:00,
2013-02-11 15:05:00,65.7,62.0,30.03,WSW,246,2.0,2.0,88,0.00,,,0.43,Wunderground v.1.15,2013-02-11 20:05:00,
2013-02-11 15:15:00,65.7,62.0,30.03,West,264,1.0,1.0,88,0.00,,,0.43,Wunderground v.1.15,2013-02-11 20:15:00,
2013-02-11 15:25:00,65.7,62.0,30.04,WSW,243,1.0,4.0,88,0.00,,,0.43,Wunderground v.1.15,2013-02-11 20:25:00,
2013-02-11 15:30:00,65.7,62.0,30.03,West,276,2.0,2.0,88,0.00,,,0.43,Wunderground v.1.15,2013-02-11 20:30:00,
2013-02-11 15:35:00,65.7,61.7,30.03,West,277,2.0,2.0,87,0.00,,,0.43,Wunderground v.1.15,2013-02-11 20:35:00,
2013-02-11 15:45:00,65.8,61.8,30.03,WSW,258,3.0,3.0,87,0.00,,,0.43,Wunderground v.1.15,2013-02-11 20:45:00,
2013-02-11 15:50:00,65.7,61.4,30.03,West,260,3.0,5.0,86,0.00,,,0.43,Wunderground v.1.15,2013-02-11 20:50:00,
2013-02-11 16:00:00,65.3,61.0,30.02,NW,310,3.0,3.0,86,0.00,,,0.43,Wunderground v.1.15,2013-02-11 21:00:00,
2013-02-11 16:05:00,65.0,61.0,30.02,West,262,3.0,6.0,87,0.00,,,0.43,Wunderground v.1.15,2013-02-11 21:05:00,
2013-02-11 16:15:00,64.7,60.7,30.03,West,266,2.0,2.0,87,0.00,,,0.43,Wunderground v.1.15,2013-02-11 21:15:00,
2013-02-11 16:20:00,64.6,60.6,30.03,WNW,283,2.0,3.0,87,0.00,,,0.43,Wunderground v.1.15,2013-02-11 21:20:00,
2013-02-11 16:30:00,64.2,60.6,30.04,West,275,2.0,3.0,88,0.00,,,0.43,Wunderground v.1.15,2013-02-11 21:30:00,
2013-02-11 16:35:00,64.0,60.7,30.04,West,271,1.0,3.0,89,0.00,,,0.43,Wunderground v.1.15,2013-02-11 21:35:00,
2013-02-11 16:40:00,63.8,60.5,30.04,West,275,1.0,3.0,89,0.00,,,0.43,Wunderground v.1.15,2013-02-11 21:40:00,
2013-02-11 16:45:00,63.6,60.6,30.05,WSW,250,2.0,4.0,90,0.00,,,0.44,Wunderground v.1.15,2013-02-11 21:45:00,
2013-02-11 16:50:00,63.4,60.4,30.05,West,278,2.0,4.0,90,0.00,,,0.44,Wunderground v.1.15,2013-02-11 21:50:00,
2013-02-11 17:00:00,63.0,60.3,30.05,WNW,288,1.0,1.0,91,0.06,,,0.45,Wunderground v.1.15,2013-02-11 22:00:00,
2013-02-11 17:05:00,62.8,60.4,30.05,West,271,2.0,2.0,92,0.06,,,0.45,Wunderground v.1.15,2013-02-11 22:05:00,
2013-02-11 17:15:00,62.5,60.1,30.05,WNW,285,1.0,4.0,92,0.06,,,0.46,Wunderground v.1.15,2013-02-11 22:15:00,
2013-02-11 17:20:00,62.3,60.2,30.05,West,276,1.0,2.0,93,0.04,,,0.46,Wunderground v.1.15,2013-02-11 22:20:00,
2013-02-11 17:25:00,62.1,60.1,30.05,West,281,2.0,2.0,93,0.00,,,0.46,Wunderground v.1.15,2013-02-11 22:25:00,
2013-02-11 17:35:00,61.9,59.9,30.04,West,279,1.0,1.0,93,0.00,,,0.46,Wunderground v.1.15,2013-02-11 22:35:00,
2013-02-11 17:40:00,61.9,60.2,30.04,West,279,0.0,0.0,94,0.00,,,0.47,Wunderground v.1.15,2013-02-11 22:40:00,
2013-02-11 17:45:00,61.8,59.8,30.04,West,279,0.0,0.0,93,0.00,,,0.47,Wunderground v.1.15,2013-02-11 22:45:00,
2013-02-11 17:50:00,61.7,60.0,30.04,West,279,0.0,0.0,94,0.00,,,0.47,Wunderground v.1.15,2013-02-11 22:50:00,
2013-02-11 17:55:00,61.6,59.9,30.04,West,279,0.0,0.0,94,0.00,,,0.47,Wunderground v.1.15,2013-02-11 22:55:00,
2013-02-11 18:00:00,61.5,59.8,30.05,WSW,237,0.0,2.0,94,0.00,,,0.47,Wunderground v.1.15,2013-02-11 23:00:00,
2013-02-11 18:05:00,61.4,59.7,30.06,WSW,258,1.0,3.0,94,0.00,,,0.47,Wunderground v.1.15,2013-02-11 23:05:00,
2013-02-11 18:15:00,61.1,59.4,30.06,WSW,245,1.0,3.0,94,0.00,,,0.47,Wunderground v.1.15,2013-02-11 23:15:00,
2013-02-11 18:20:00,61.0,59.3,30.05,WSW,243,1.0,1.0,94,0.00,,,0.47,Wunderground v.1.15,2013-02-11 23:20:00,
2013-02-11 18:25:00,60.9,59.2,30.04,WSW,250,0.0,1.0,94,0.00,,,0.48,Wunderground v.1.15,2013-02-11 23:25:00,
2013-02-11 18:30:00,60.8,59.4,30.04,WNW,282,1.0,12.0,95,0.00,,,0.48,Wunderground v.1.15,2013-02-11 23:30:00,
2013-02-11 18:35:00,59.9,57.9,30.04,WSW,238,3.0,12.0,93,0.00,,,0.48,Wunderground v.1.15,2013-02-11 23:35:00,
2013-02-11 18:40:00,59.6,57.6,30.05,WSW,240,4.0,6.0,93,0.00,,,0.48,Wunderground v.1.15,2013-02-11 23:40:00,
2013-02-11 18:45:00,59.3,57.0,30.04,WSW,258,3.0,6.0,92,0.00,,,0.48,Wunderground v.1.15,2013-02-11 23:45:00,
2013-02-11 18:50:00,59.0,56.1,30.05,West,268,3.0,3.0,90,0.00,,,0.48,Wunderground v.1.15,2013-02-11 23:50:00,
2013-02-11 18:55:00,58.9,56.0,30.06,WSW,244,2.0,3.0,90,0.00,,,0.49,Wunderground v.1.15,2013-02-11 23:55:00,
2013-02-11 19:00:00,58.8,55.9,30.07,WSW,242,1.0,1.0,90,0.00,,,0.49,Wunderground v.1.15,2013-02-12 00:00:00,
2013-02-11 19:05:00,58.7,56.1,30.08,SW,229,1.0,1.0,91,0.00,,,0.49,Wunderground v.1.15,2013-02-12 00:05:00,
2013-02-11 19:15:00,58.4,55.8,30.07,WSW,245,1.0,4.0,91,0.00,,,0.50,Wunderground v.1.15,2013-02-12 00:15:00,
2013-02-11 19:20:00,58.2,55.9,30.05,SSW,212,1.0,2.0,92,0.00,,,0.50,Wunderground v.1.15,2013-02-12 00:20:00,
2013-02-11 19:25:00,58.1,55.8,30.04,WSW,237,1.0,2.0,92,0.06,,,0.51,Wunderground v.1.15,2013-02-12 00:25:00,
2013-02-11 19:30:00,57.9,55.6,30.04,WSW,241,1.0,1.0,92,0.06,,,0.51,Wunderground v.1.15,2013-02-12 00:30:00,
2013-02-11 19:40:00,57.6,55.3,30.03,South,177,1.0,1.0,92,0.04,,,0.51,Wunderground v.1.15,2013-02-12 00:40:00,
2013-02-11 19:45:00,57.4,55.1,30.04,West,266,1.0,3.0,92,0.00,,,0.52,Wunderground v.1.15,2013-02-12 00:45:00,
2013-02-11 19:50:00,57.3,55.3,30.04,WSW,252,1.0,1.0,93,0.00,,,0.52,Wunderground v.1.15,2013-02-12 00:50:00,
2013-02-11 19:55:00,57.2,55.2,30.04,West,264,1.0,1.0,93,0.00,,,0.52,Wunderground v.1.15,2013-02-12 00:55:00,
2013-02-11 20:00:00,57.1,55.1,30.05,West,268,1.0,2.0,93,0.04,,,0.53,Wunderground v.1.15,2013-02-12 01:00:00,
2013-02-11 20:05:00,56.9,54.9,30.05,West,262,1.0,3.0,93,0.04,,,0.53,Wunderground v.1.15,2013-02-12 01:05:00,
2013-02-11 20:15:00,56.8,55.1,30.06,WSW,246,1.0,2.0,94,0.05,,,0.54,Wunderground v.1.15,2013-02-12 01:15:00,
2013-02-11 20:25:00,56.7,55.0,30.04,WSW,256,0.0,1.0,94,0.06,,,0.55,Wunderground v.1.15,2013-02-12 01:25:00,
2013-02-11 20:30:00,56.6,54.9,30.04,WSW,254,0.0,0.0,94,0.23,,,0.57,Wunderground v.1.15,2013-02-12 01:30:00,
2013-02-11 20:35:00,56.6,54.9,30.05,WSW,254,0.0,0.0,94,0.13,,,0.58,Wunderground v.1.15,2013-02-12 01:35:00,
2013-02-11 20:40:00,56.5,54.8,30.05,WSW,254,0.0,0.0,94,0.07,,,0.59,Wunderground v.1.15,2013-02-12 01:40:00,
2013-02-11 20:45:00,56.5,55.1,30.05,WSW,254,0.0,1.0,95,0.07,,,0.59,Wunderground v.1.15,2013-02-12 01:45:00,
2013-02-11 20:55:00,56.4,55.0,30.04,WSW,250,1.0,1.0,95,0.11,,,0.61,Wunderground v.1.15,2013-02-12 01:55:00,
2013-02-11 21:00:00,56.4,55.0,30.03,WSW,250,0.0,0.0,95,0.19,,,0.63,Wunderground v.1.15,2013-02-12 02:00:00,
2013-02-11 21:05:00,56.3,54.9,30.03,WSW,250,0.0,0.0,95,0.11,,,0.64,Wunderground v.1.15,2013-02-12 02:05:00,
2013-02-11 21:15:00,56.3,54.9,30.04,WSW,250,0.0,1.0,95,0.08,,,0.65,Wunderground v.1.15,2013-02-12 02:15:00,
2013-02-11 21:20:00,56.3,54.9,30.04,WSW,250,1.0,1.0,95,0.10,,,0.66,Wunderground v.1.15,2013-02-12 02:20:00,
2013-02-11 21:30:00,56.3,54.9,30.05,WSW,257,2.0,2.0,95,0.10,,,0.67,Wunderground v.1.15,2013-02-12 02:30:00,
2013-02-11 21:35:00,56.3,54.9,30.05,WSW,256,2.0,2.0,95,0.10,,,0.68,Wunderground v.1.15,2013-02-12 02:35:00,
2013-02-11 21:40:00,56.2,55.1,30.05,West,270,1.0,3.0,96,0.06,,,0.69,Wunderground v.1.15,2013-02-12 02:40:00,
2013-02-11 21:45:00,56.2,55.1,30.06,West,277,1.0,3.0,96,0.06,,,0.69,Wunderground v.1.15,2013-02-12 02:45:00,
2013-02-11 21:50:00,56.2,55.1,30.06,WSW,245,1.0,4.0,96,0.07,,,0.70,Wunderground v.1.15,2013-02-12 02:50:00,
2013-02-11 21:55:00,56.2,55.1,30.05,West,270,1.0,4.0,96,0.10,,,0.71,Wunderground v.1.15,2013-02-12 02:55:00,
2013-02-11 22:05:00,56.0,54.9,30.05,WSW,250,1.0,1.0,96,0.06,,,0.72,Wunderground v.1.15,2013-02-12 03:05:00,
2013-02-11 22:15:00,55.9,54.8,30.06,SSW,202,1.0,1.0,96,0.07,,,0.73,Wunderground v.1.15,2013-02-12 03:15:00,
2013-02-11 22:20:00,55.8,54.7,30.06,SW,222,2.0,2.0,96,0.08,,,0.74,Wunderground v.1.15,2013-02-12 03:20:00,
2013-02-11 22:25:00,55.7,54.6,30.06,SSW,199,2.0,2.0,96,0.08,,,0.74,Wunderground v.1.15,2013-02-12 03:25:00,
2013-02-11 22:35:00,55.5,54.4,30.06,SW,235,1.0,1.0,96,0.08,,,0.75,Wunderground v.1.15,2013-02-12 03:35:00,
2013-02-11 22:40:00,55.3,54.2,30.05,WSW,254,2.0,2.0,96,0.05,,,0.75,Wunderground v.1.15,2013-02-12 03:40:00,
2013-02-11 22:45:00,55.1,54.0,30.04,West,260,2.0,2.0,96,0.05,,,0.76,Wunderground v.1.15,2013-02-12 03:45:00,
2013-02-11 22:50:00,55.0,53.9,30.05,WSW,243,1.0,1.0,96,0.10,,,0.77,Wunderground v.1.15,2013-02-12 03:50:00,
2013-02-11 22:55:00,54.9,53.8,30.03,South,169,1.0,1.0,96,0.08,,,0.78,Wunderground v.1.15,2013-02-12 03:55:00,
2013-02-11 23:00:00,54.8,53.7,30.02,South,169,1.0,1.0,96,0.10,,,0.79,Wunderground v.1.15,2013-02-12 04:00:00,
2013-02-11 23:05:00,54.7,53.6,30.02,WSW,245,0.0,1.0,96,0.11,,,0.80,Wunderground v.1.15,2013-02-12 04:05:00,
2013-02-11 23:15:00,54.6,53.5,30.03,SSW,204,1.0,5.0,96,0.11,,,0.81,Wunderground v.1.15,2013-02-12 04:15:00,
2013-02-11 23:20:00,54.5,53.4,30.04,West,260,1.0,5.0,96,0.06,,,0.81,Wunderground v.1.15,2013-02-12 04:20:00,
2013-02-11 23:25:00,54.4,53.3,30.03,SW,235,1.0,5.0,96,0.05,,,0.82,Wunderground v.1.15,2013-02-12 04:25:00,
2013-02-11 23:30:00,54.4,53.3,30.03,West,260,1.0,1.0,96,0.05,,,0.82,Wunderground v.1.15,2013-02-12 04:30:00,
2013-02-11 23:35:00,54.4,53.6,30.05,WNW,287,2.0,2.0,97,0.04,,,0.82,Wunderground v.1.15,2013-02-12 04:35:00,
2013-02-11 23:45:00,54.4,53.6,30.07,West,279,3.0,3.0,97,0.04,,,0.83,Wunderground v.1.15,2013-02-12 04:45:00,
2013-02-11 23:50:00,54.3,53.5,30.07,West,260,2.0,2.0,97,0.04,,,0.83,Wunderground v.1.15,2013-02-12 04:50:00,
2013-02-11 23:55:00,54.3,53.5,30.07,West,264,3.0,6.0,97,0.00,,,0.83,Wunderground v.1.15,2013-02-12 04:55:00,